JST225 YMHB-YPAD

Flight info

Callsign JST225
Flight time N/A
Altitude 34000
Route TASUM T234 BORTO H345 AD
Aircraft A21N/M-SDE2E3FGHIRWXY/LB1

Departure

Time 2026-05-01 13:56
Airport Hobart International Airport (YMHB)

Arrival

Time N/A
Airport Adelaide International Airport (YPAD)
Time Latitude Longitude Altitude Speed Heading
2026-05-01 13:23 -42.83742 147.50704 27 ft 0 kts 236°
2026-05-01 13:43 -42.83731 147.50727 27 ft 3 kts 235°
2026-05-01 13:43 -42.83718 147.50751 27 ft 4 kts 236°
2026-05-01 13:44 -42.83706 147.50772 27 ft 4 kts 189°
2026-05-01 13:44 -42.83696 147.50763 27 ft 4 kts 119°
2026-05-01 13:44 -42.83683 147.50731 27 ft 4 kts 129°
2026-05-01 13:44 -42.83678 147.50723 27 ft 0 kts 135°
2026-05-01 13:50 -42.83687 147.50738 27 ft 9 kts 123°
2026-05-01 13:50 -42.83677 147.50835 27 ft 13 kts 57°
2026-05-01 13:51 -42.83694 147.50919 27 ft 9 kts 135°
2026-05-01 13:51 -42.83754 147.51000 27 ft 16 kts 135°
2026-05-01 13:51 -42.83842 147.51121 27 ft 19 kts 135°
2026-05-01 13:51 -42.83859 147.51150 27 ft 3 kts 118°
2026-05-01 13:52 -42.83861 147.51192 27 ft 7 kts 60°
2026-05-01 13:52 -42.83838 147.51226 27 ft 1 kts 45°
2026-05-01 13:52 -42.83825 147.51244 27 ft 4 kts 45°
2026-05-01 13:52 -42.83793 147.51288 27 ft 9 kts 45°
2026-05-01 13:53 -42.83776 147.51378 27 ft 12 kts 105°
2026-05-01 13:53 -42.84000 147.51700 27 ft 27 kts 135°
2026-05-01 13:53 -42.84141 147.51887 27 ft 29 kts 135°
2026-05-01 13:54 -42.84276 147.52068 27 ft 24 kts 135°
2026-05-01 13:54 -42.84391 147.52221 27 ft 9 kts 135°
2026-05-01 13:54 -42.84453 147.52284 27 ft 13 kts 154°
2026-05-01 13:54 -42.84533 147.52336 27 ft 11 kts 141°
2026-05-01 13:55 -42.84536 147.52420 27 ft 14 kts 358°
2026-05-01 13:55 -42.84516 147.52402 27 ft 2 kts 302°
2026-05-01 13:55 -42.84407 147.52245 27 ft 67 kts 313°
2026-05-01 13:55 -42.84083 147.51808 28 ft 130 kts 316°
2026-05-01 13:56 -42.83268 147.50719 247 ft 180 kts 315°
2026-05-01 13:56 -42.82347 147.49465 934 ft 199 kts 315°
2026-05-01 13:56 -42.81272 147.47972 1362 ft 243 kts 316°
2026-05-01 13:56 -42.80054 147.46306 2707 ft 245 kts 316°
2026-05-01 13:57 -42.78870 147.44692 4042 ft 238 kts 316°
2026-05-01 13:57 -42.77700 147.43095 5115 ft 239 kts 315°
2026-05-01 13:57 -42.76503 147.41463 5875 ft 242 kts 315°
2026-05-01 13:57 -42.75314 147.39838 6815 ft 245 kts 315°
2026-05-01 13:58 -42.74094 147.38162 8024 ft 253 kts 315°
2026-05-01 13:58 -42.72827 147.36427 9287 ft 262 kts 315°
2026-05-01 13:58 -42.71465 147.34559 10507 ft 277 kts 315°
2026-05-01 13:58 -42.70026 147.32586 11057 ft 311 kts 315°
2026-05-01 13:59 -42.68425 147.30384 11488 ft 343 kts 315°
2026-05-01 13:59 -42.66676 147.27984 11956 ft 368 kts 316°
2026-05-01 13:59 -42.64841 147.25483 12791 ft 378 kts 316°
2026-05-01 13:59 -42.62954 147.22923 13758 ft 382 kts 316°
2026-05-01 14:00 -42.61055 147.20344 14616 ft 387 kts 316°
2026-05-01 14:00 -42.59149 147.17748 15457 ft 390 kts 316°
2026-05-01 14:00 -42.57236 147.15124 16292 ft 393 kts 315°
2026-05-01 14:00 -42.55325 147.12427 17130 ft 396 kts 315°
2026-05-01 14:01 -42.53431 147.09729 17959 ft 399 kts 315°
2026-05-01 14:01 -42.51516 147.07001 18735 ft 401 kts 315°
2026-05-01 14:01 -42.49574 147.04262 19391 ft 405 kts 315°
2026-05-01 14:01 -42.47604 147.01506 20026 ft 409 kts 316°
2026-05-01 14:02 -42.45537 146.98827 20682 ft 414 kts 318°
2026-05-01 14:02 -42.43374 146.96147 21357 ft 419 kts 319°
2026-05-01 14:02 -42.41201 146.93487 22050 ft 424 kts 319°
2026-05-01 14:02 -42.38963 146.90770 22781 ft 429 kts 319°
2026-05-01 14:03 -42.36766 146.88095 23496 ft 433 kts 319°
2026-05-01 14:03 -42.34510 146.85348 24018 ft 438 kts 319°
2026-05-01 14:03 -42.32241 146.82598 24231 ft 440 kts 320°
2026-05-01 14:03 -42.29946 146.79838 24623 ft 444 kts 319°
2026-05-01 14:04 -42.27643 146.77049 25244 ft 445 kts 319°
2026-05-01 14:04 -42.25352 146.74269 26080 ft 441 kts 319°
2026-05-01 14:04 -42.23076 146.71518 26929 ft 437 kts 319°
2026-05-01 14:04 -42.21575 146.69711 27461 ft 436 kts 319°
2026-05-01 14:05 -42.18557 146.66090 28537 ft 432 kts 319°
2026-05-01 14:05 -42.16323 146.63404 29362 ft 429 kts 319°
2026-05-01 14:05 -42.14098 146.60743 30198 ft 426 kts 319°
2026-05-01 14:05 -42.11889 146.58094 30909 ft 423 kts 318°
2026-05-01 14:06 -42.09700 146.55459 31584 ft 421 kts 318°
2026-05-01 14:06 -42.07510 146.52848 32245 ft 420 kts 319°
2026-05-01 14:06 -42.05315 146.50265 32921 ft 418 kts 319°
2026-05-01 14:06 -42.03140 146.47695 33598 ft 415 kts 318°
2026-05-01 14:07 -42.00969 146.45119 34087 ft 416 kts 318°
2026-05-01 14:07 -41.98806 146.42547 34261 ft 414 kts 318°
2026-05-01 14:08 -41.92368 146.34875 34283 ft 412 kts 318°
2026-05-01 14:08 -41.88077 146.29761 34270 ft 413 kts 318°
2026-05-01 14:09 -41.83777 146.24651 34270 ft 413 kts 318°
2026-05-01 14:09 -41.79467 146.19554 34274 ft 413 kts 318°
2026-05-01 14:10 -41.75160 146.14458 34276 ft 413 kts 319°
2026-05-01 14:10 -41.70786 146.09302 34293 ft 413 kts 319°
2026-05-01 14:11 -41.66463 146.04214 34286 ft 414 kts 319°
2026-05-01 14:11 -41.59838 145.96428 34280 ft 413 kts 319°
2026-05-01 14:12 -41.55514 145.91355 34275 ft 413 kts 319°
2026-05-01 14:12 -41.51190 145.86293 34285 ft 413 kts 319°
2026-05-01 14:13 -41.47594 145.82094 34275 ft 413 kts 319°
2026-05-01 14:13 -41.43272 145.77052 34271 ft 413 kts 319°
2026-05-01 14:14 -41.38943 145.72015 34262 ft 413 kts 319°
2026-05-01 14:14 -41.34614 145.66982 34262 ft 413 kts 319°
2026-05-01 14:15 -41.30279 145.61945 34253 ft 414 kts 320°
2026-05-01 14:15 -41.25908 145.56891 34238 ft 414 kts 320°
2026-05-01 14:16 -41.21567 145.51875 34239 ft 414 kts 320°
2026-05-01 14:16 -41.17221 145.46862 34231 ft 414 kts 320°
2026-05-01 14:17 -41.12871 145.41840 34233 ft 414 kts 320°
2026-05-01 14:17 -41.08514 145.36841 34230 ft 414 kts 320°
2026-05-01 14:18 -41.04151 145.31846 34222 ft 414 kts 320°
2026-05-01 14:18 -41.00499 145.27665 34221 ft 414 kts 320°
2026-05-01 14:19 -40.95397 145.21828 34213 ft 415 kts 320°
2026-05-01 14:19 -40.91028 145.16848 34207 ft 415 kts 320°
2026-05-01 14:20 -40.84463 145.09384 34202 ft 415 kts 320°
2026-05-01 14:21 -40.80069 145.04426 34190 ft 416 kts 320°
2026-05-01 14:21 -40.76509 145.00457 34188 ft 416 kts 320°
2026-05-01 14:22 -40.69872 144.93062 34185 ft 417 kts 320°
2026-05-01 14:22 -40.65434 144.88128 34185 ft 417 kts 320°
2026-05-01 14:23 -40.61000 144.83205 34176 ft 417 kts 320°
2026-05-01 14:23 -40.56565 144.78289 34175 ft 417 kts 320°
2026-05-01 14:24 -40.52127 144.73377 34173 ft 417 kts 320°
2026-05-01 14:24 -40.47707 144.68446 34172 ft 417 kts 320°
2026-05-01 14:25 -40.43257 144.63562 34168 ft 417 kts 321°
2026-05-01 14:25 -40.38810 144.58691 34167 ft 416 kts 320°
2026-05-01 14:26 -40.32148 144.51383 34165 ft 416 kts 321°
2026-05-01 14:27 -40.27706 144.46514 34158 ft 416 kts 321°
2026-05-01 14:27 -40.23264 144.41654 34158 ft 416 kts 321°
2026-05-01 14:28 -40.16596 144.34377 34153 ft 416 kts 321°
2026-05-01 14:28 -40.12154 144.29541 34158 ft 415 kts 321°
2026-05-01 14:29 -40.07718 144.24708 34151 ft 415 kts 321°
2026-05-01 14:30 -39.98832 144.15083 34150 ft 415 kts 321°
2026-05-01 14:31 -39.92135 144.07842 34945 ft 414 kts 321°
2026-05-01 14:31 -39.89925 144.05461 35498 ft 412 kts 321°
2026-05-01 14:31 -39.87715 144.03082 35952 ft 412 kts 321°
2026-05-01 14:31 -39.85479 144.00673 36126 ft 410 kts 321°
2026-05-01 14:32 -39.83285 143.98314 36156 ft 409 kts 321°
2026-05-01 14:32 -39.78898 143.93604 36152 ft 409 kts 322°
2026-05-01 14:33 -39.74462 143.88846 36144 ft 414 kts 322°
2026-05-01 14:33 -39.70003 143.84064 36137 ft 416 kts 322°
2026-05-01 14:34 -39.65532 143.79283 36132 ft 417 kts 322°
2026-05-01 14:34 -39.60995 143.74443 36129 ft 417 kts 322°
2026-05-01 14:35 -39.56515 143.69672 36131 ft 417 kts 322°
2026-05-01 14:35 -39.52031 143.64901 36126 ft 417 kts 322°
2026-05-01 14:36 -39.47455 143.60041 36123 ft 417 kts 322°
2026-05-01 14:36 -39.42969 143.55274 36120 ft 417 kts 322°
2026-05-01 14:37 -39.38475 143.50529 36120 ft 417 kts 322°
2026-05-01 14:37 -39.34751 143.46559 36118 ft 417 kts 322°
2026-05-01 14:38 -39.30234 143.41762 36119 ft 418 kts 322°
2026-05-01 14:38 -39.25720 143.37052 36120 ft 417 kts 322°
2026-05-01 14:39 -39.21206 143.32337 36116 ft 418 kts 322°
2026-05-01 14:39 -39.16608 143.27520 36110 ft 418 kts 322°
2026-05-01 14:40 -39.12069 143.22768 36111 ft 418 kts 322°
2026-05-01 14:40 -39.07591 143.18086 36110 ft 417 kts 322°
2026-05-01 14:41 -39.03054 143.13354 36109 ft 417 kts 322°
2026-05-01 14:41 -38.98544 143.08656 36110 ft 417 kts 322°
2026-05-01 14:42 -38.94036 143.03969 36106 ft 417 kts 322°
2026-05-01 14:42 -38.89510 142.99326 36103 ft 416 kts 323°
2026-05-01 14:43 -38.84844 142.94919 36103 ft 416 kts 324°
2026-05-01 14:43 -38.80164 142.90548 36099 ft 416 kts 324°
2026-05-01 14:44 -38.75492 142.86179 36100 ft 416 kts 324°
2026-05-01 14:44 -38.68466 142.79613 36100 ft 415 kts 324°
2026-05-01 14:45 -38.61518 142.73064 36095 ft 415 kts 324°
2026-05-01 14:46 -38.56837 142.68751 36094 ft 415 kts 324°
2026-05-01 14:46 -38.49837 142.62274 36092 ft 414 kts 324°
2026-05-01 14:47 -38.45163 142.57973 36092 ft 414 kts 324°
2026-05-01 14:48 -38.38137 142.51490 36088 ft 414 kts 324°
2026-05-01 14:48 -38.31180 142.45081 36087 ft 413 kts 324°
2026-05-01 14:49 -38.21832 142.36490 36082 ft 413 kts 324°
2026-05-01 14:50 -38.12516 142.27955 36080 ft 412 kts 324°
2026-05-01 14:51 -38.05544 142.21583 36078 ft 412 kts 324°
2026-05-01 14:52 -37.98568 142.15221 36072 ft 412 kts 324°
2026-05-01 14:53 -37.91590 142.08885 36071 ft 411 kts 324°
2026-05-01 14:53 -37.86941 142.04667 36072 ft 411 kts 324°
2026-05-01 14:54 -37.82291 142.00455 36071 ft 411 kts 324°
2026-05-01 14:54 -37.77639 141.96246 36068 ft 411 kts 324°
2026-05-01 14:55 -37.72987 141.92049 36063 ft 411 kts 324°
2026-05-01 14:55 -37.68339 141.87854 36064 ft 411 kts 324°
2026-05-01 14:56 -37.63687 141.83668 36069 ft 410 kts 324°
2026-05-01 14:56 -37.59043 141.79496 36068 ft 410 kts 324°
2026-05-01 14:57 -37.54399 141.75323 36065 ft 410 kts 324°
2026-05-01 14:57 -37.47312 141.68981 36065 ft 409 kts 324°
2026-05-01 14:58 -37.42672 141.64833 36059 ft 409 kts 324°
2026-05-01 14:58 -37.38029 141.60692 36059 ft 409 kts 324°
2026-05-01 14:59 -37.33398 141.56551 36055 ft 408 kts 324°
2026-05-01 14:59 -37.28759 141.52434 36053 ft 408 kts 324°
2026-05-01 15:00 -37.21822 141.46239 36054 ft 408 kts 324°
2026-05-01 15:01 -37.17970 141.42832 36057 ft 408 kts 325°
2026-05-01 15:01 -37.13331 141.38740 36051 ft 408 kts 325°
2026-05-01 15:02 -37.08688 141.34653 36049 ft 408 kts 325°
2026-05-01 15:02 -37.04073 141.30524 36049 ft 408 kts 324°
2026-05-01 15:03 -36.99435 141.26422 36044 ft 408 kts 325°
2026-05-01 15:03 -36.94790 141.22346 36043 ft 408 kts 325°
2026-05-01 15:04 -36.90152 141.18251 36043 ft 408 kts 325°
2026-05-01 15:04 -36.85496 141.14186 36038 ft 408 kts 325°
2026-05-01 15:05 -36.80842 141.10125 36032 ft 408 kts 325°
2026-05-01 15:05 -36.76184 141.06081 36027 ft 408 kts 325°
2026-05-01 15:06 -36.71529 141.02036 36029 ft 408 kts 325°
2026-05-01 15:06 -36.66876 140.97986 36026 ft 408 kts 325°
2026-05-01 15:07 -36.62229 140.93943 36023 ft 408 kts 325°
2026-05-01 15:07 -36.57584 140.89898 36020 ft 408 kts 325°
2026-05-01 15:08 -36.52933 140.85868 36025 ft 407 kts 325°
2026-05-01 15:08 -36.48305 140.81808 36013 ft 405 kts 324°
2026-05-01 15:08 -36.46001 140.79790 35768 ft 406 kts 325°
2026-05-01 15:09 -36.43683 140.77771 35331 ft 406 kts 325°
2026-05-01 15:09 -36.41374 140.75761 34874 ft 407 kts 325°
2026-05-01 15:09 -36.39161 140.73557 34398 ft 409 kts 318°
2026-05-01 15:09 -36.37237 140.70873 33907 ft 412 kts 310°
2026-05-01 15:10 -36.35464 140.68007 33355 ft 414 kts 309°
2026-05-01 15:10 -36.31924 140.62211 32104 ft 417 kts 310°
2026-05-01 15:10 -36.30144 140.59360 31476 ft 419 kts 310°
2026-05-01 15:11 -36.28340 140.56515 30870 ft 420 kts 311°
2026-05-01 15:11 -36.24676 140.50841 29600 ft 424 kts 311°
2026-05-01 15:11 -36.22818 140.47935 28904 ft 425 kts 311°
2026-05-01 15:12 -36.20978 140.45045 28238 ft 427 kts 311°
2026-05-01 15:12 -36.17285 140.39244 26952 ft 431 kts 311°
2026-05-01 15:12 -36.15425 140.36322 26322 ft 433 kts 311°
2026-05-01 15:13 -36.09740 140.27402 24524 ft 440 kts 311°
2026-05-01 15:14 -36.05972 140.21505 23346 ft 423 kts 311°
2026-05-01 15:14 -36.04185 140.18715 22666 ft 407 kts 311°
2026-05-01 15:14 -36.00754 140.13379 21368 ft 381 kts 311°
2026-05-01 15:15 -35.97560 140.08434 20429 ft 353 kts 311°
2026-05-01 15:15 -35.94624 140.03899 19855 ft 324 kts 312°
2026-05-01 15:16 -35.91869 139.99651 18913 ft 313 kts 312°
2026-05-01 15:16 -35.89172 139.95488 17784 ft 308 kts 312°
2026-05-01 15:17 -35.86499 139.91357 16596 ft 304 kts 311°
2026-05-01 15:18 -35.82572 139.85289 14927 ft 299 kts 311°
2026-05-01 15:18 -35.81290 139.83312 14408 ft 300 kts 311°
2026-05-01 15:19 -35.77356 139.77257 13961 ft 301 kts 311°
2026-05-01 15:19 -35.74782 139.73297 13960 ft 287 kts 311°
2026-05-01 15:19 -35.73537 139.71387 13966 ft 286 kts 311°
2026-05-01 15:20 -35.71050 139.67566 13967 ft 286 kts 311°
2026-05-01 15:20 -35.69846 139.65675 13651 ft 280 kts 307°
2026-05-01 15:20 -35.68967 139.63529 13110 ft 283 kts 295°
2026-05-01 15:21 -35.68270 139.61268 12596 ft 282 kts 294°
2026-05-01 15:21 -35.67584 139.59009 12119 ft 281 kts 294°
2026-05-01 15:21 -35.66886 139.56778 11662 ft 278 kts 295°
2026-05-01 15:21 -35.66183 139.54573 11209 ft 276 kts 295°
2026-05-01 15:22 -35.64780 139.50221 10352 ft 272 kts 296°
2026-05-01 15:22 -35.64075 139.48062 10079 ft 272 kts 296°
2026-05-01 15:22 -35.63372 139.45904 10030 ft 272 kts 296°
2026-05-01 15:23 -35.62672 139.43747 10033 ft 272 kts 295°
2026-05-01 15:23 -35.61967 139.41590 10036 ft 272 kts 296°
2026-05-01 15:23 -35.61255 139.39436 10043 ft 272 kts 296°
2026-05-01 15:23 -35.60537 139.37256 10045 ft 272 kts 296°
2026-05-01 15:24 -35.59620 139.35245 10047 ft 269 kts 309°
2026-05-01 15:24 -35.58829 139.34041 10048 ft 268 kts 312°
2026-05-01 15:24 -35.57569 139.32229 10052 ft 268 kts 313°
2026-05-01 15:24 -35.56356 139.30464 10038 ft 267 kts 312°
2026-05-01 15:25 -35.55151 139.28677 10047 ft 268 kts 311°
2026-05-01 15:25 -35.53973 139.26907 10038 ft 268 kts 311°
2026-05-01 15:25 -35.52796 139.25126 10036 ft 269 kts 311°
2026-05-01 15:25 -35.51621 139.23341 10036 ft 269 kts 311°
2026-05-01 15:26 -35.50450 139.21550 10040 ft 269 kts 310°
2026-05-01 15:26 -35.49283 139.19756 10045 ft 269 kts 310°
2026-05-01 15:26 -35.48114 139.17964 10037 ft 269 kts 310°
2026-05-01 15:26 -35.46939 139.16176 10032 ft 269 kts 310°
2026-05-01 15:27 -35.45765 139.14387 10032 ft 269 kts 310°
2026-05-01 15:27 -35.44590 139.12593 10035 ft 270 kts 310°
2026-05-01 15:27 -35.43420 139.10800 10034 ft 270 kts 310°
2026-05-01 15:28 -35.41061 139.07197 10037 ft 270 kts 310°
2026-05-01 15:28 -35.39877 139.05390 10032 ft 271 kts 310°
2026-05-01 15:28 -35.38696 139.03596 10035 ft 270 kts 310°
2026-05-01 15:29 -35.36337 139.00011 10028 ft 270 kts 310°
2026-05-01 15:29 -35.35153 138.98218 10030 ft 271 kts 310°
2026-05-01 15:29 -35.32810 138.94653 9555 ft 264 kts 310°
2026-05-01 15:30 -35.30509 138.91158 8596 ft 263 kts 311°
2026-05-01 15:31 -35.26014 138.84332 6958 ft 253 kts 312°
2026-05-01 15:31 -35.23833 138.81015 6116 ft 248 kts 313°
2026-05-01 15:32 -35.21736 138.77836 5264 ft 246 kts 314°
2026-05-01 15:32 -35.19593 138.74583 4998 ft 246 kts 314°
2026-05-01 15:33 -35.16644 138.70074 4995 ft 210 kts 315°
2026-05-01 15:34 -35.14729 138.65142 5010 ft 220 kts 296°